Change the Weather History Date:

Sunday, September 29, 2013

  Actual Average (KOLM) Record (KOLM)
Temperature  
Mean Temperature 52 °F 55 °F  
Max Temperature 55 °F 67 °F 89 °F (1993)
Min Temperature 50 °F 43 °F 30 °F (1961)
Degree Days  
Heating Degree Days 12 10  
Month to date heating degree days 181  
Since 1 July heating degree days 331  
Cooling Degree Days 0 0  
Month to date cooling degree days 4  
Year to date cooling degree days 103  
Growing Degree Days 2 (Base 50)    
Moisture  
Dew Point 50 °F    
Average Humidity 91    
Maximum Humidity 100    
Minimum Humidity 76    
Precipitation  
Precipitation 1.16 in 0.07 in 1.14 in (2005)
Month to date precipitation 1.63  
Year to date precipitation 29.23  
Sea Level Pressure  
Sea Level Pressure 29.51 in    
Wind  
Wind Speed 10 mph (South)    
Max Wind Speed 24 mph    
Max Gust Speed 38 mph    
Visibility 6 miles    
Events Rain    
T = Trace of Precipitation, MM = Missing Value Source: NWS Daily Summary

Daily Weather History Graph

Daily Weather History Graph

Search for Another Location

Airport or City:

Trip Planner

Search our weather history database for the weather conditions in past years. The results will help you decide how hot, cold, wet, or windy it might be!

Date:

Astronomy

Sep. 29, 2013 Rise Set
Actual Time 7:08 AM PDT 6:54 PM PDT
Civil Twilight 6:38 AM PDT 7:25 PM PDT
Nautical Twilight 6:03 AM PDT 8:00 PM PDT
Astronomical Twilight 5:27 AM PDT 8:35 PM PDT
Moon 1:38 AM PDT (9/29) 4:08 PM PDT (9/29)
Length of Visible Light 12h 46m
Length of Day
11h 46m
Waning Crescent, 26% of the Moon is Illuminated
Sep 29
Waning Crescent
Oct 4
New
Oct 11
First Quarter
Oct 18
Full
Oct 26
Last Quarter

Hourly Weather History & Observations

Time (PDT) Temp. Dew Point Humidity Pressure Visibility Wind Dir Wind Speed Gust Speed Precip Events Conditions
12:15 AM 51.8 °F 50.0 °F 94% 29.57 in 3.0 mi WNW 6.9 mph 18.4 mph 0.05 in Rain Light Rain
12:35 AM 51.8 °F 50.0 °F 94% 29.57 in 3.0 mi SSE 8.1 mph - 0.13 in Rain Light Rain
12:55 AM 51.8 °F 50.0 °F 94% 29.58 in 4.0 mi SSW 6.9 mph - 0.15 in Rain Light Rain
1:15 AM 51.8 °F 50.0 °F 94% 29.58 in 4.0 mi South 9.2 mph - 0.06 in Rain Rain
1:35 AM 51.8 °F 50.0 °F 94% 29.59 in 3.0 mi South 10.4 mph - 0.13 in Rain Rain
1:55 AM 53.6 °F 50.0 °F 88% 29.58 in 10.0 mi SSE 12.7 mph 17.3 mph 0.16 in   Mostly Cloudy
2:15 AM 51.8 °F 50.0 °F 94% 29.58 in 5.0 mi SSE 11.5 mph 19.6 mph 0.02 in   Mostly Cloudy
2:35 AM 51.8 °F 50.0 °F 94% 29.59 in 10.0 mi South 10.4 mph - 0.02 in   Overcast
2:55 AM 50.0 °F 50.0 °F 100% 29.59 in 6.0 mi South 9.2 mph - 0.04 in Rain Light Rain
3:15 AM 51.8 °F 50.0 °F 94% 29.59 in 10.0 mi WSW 3.5 mph - N/A   Overcast
3:35 AM 51.8 °F 50.0 °F 94% 29.60 in 9.0 mi South 3.5 mph - 0.01 in   Overcast
3:55 AM 51.8 °F 50.0 °F 94% 29.61 in 5.0 mi WSW 3.5 mph - 0.05 in Rain Light Rain
4:15 AM 51.8 °F 50.0 °F 94% 29.59 in 10.0 mi South 8.1 mph - N/A   Mostly Cloudy
4:35 AM 53.6 °F 50.0 °F 88% 29.59 in 10.0 mi South 10.4 mph 16.1 mph N/A   Overcast
4:55 AM 53.6 °F 50.0 °F 88% 29.59 in 8.0 mi South 11.5 mph - N/A   Overcast
5:15 AM 53.6 °F 50.0 °F 88% 29.59 in 8.0 mi South 11.5 mph 18.4 mph 0.01 in   Overcast
5:35 AM 51.8 °F 50.0 °F 94% 29.59 in 9.0 mi South 11.5 mph 16.1 mph 0.01 in   Overcast
5:55 AM 53.6 °F 50.0 °F 88% 29.59 in 10.0 mi South 12.7 mph 18.4 mph 0.01 in   Mostly Cloudy
6:15 AM 53.6 °F 50.0 °F 88% 29.59 in 9.0 mi South 12.7 mph 20.7 mph N/A   Mostly Cloudy
6:35 AM 53.6 °F 50.0 °F 88% 29.59 in 9.0 mi South 10.4 mph - N/A   Overcast
6:55 AM 53.6 °F 50.0 °F 88% 29.59 in 5.0 mi South 11.5 mph - N/A   Overcast
7:15 AM 51.8 °F 50.0 °F 94% 29.59 in 8.0 mi South 12.7 mph 19.6 mph 0.01 in Rain Light Rain
7:35 AM 51.8 °F 50.0 °F 94% 29.60 in 4.0 mi South 12.7 mph 21.9 mph 0.06 in Rain Light Rain
7:55 AM 53.6 °F 50.0 °F 88% 29.60 in 7.0 mi South 11.5 mph 16.1 mph 0.07 in   Overcast
8:15 AM 53.6 °F 50.0 °F 88% 29.60 in 5.0 mi SSE 10.4 mph - 0.02 in   Mostly Cloudy
8:35 AM 51.8 °F 50.0 °F 94% 29.62 in 2.5 mi SSW 8.1 mph - 0.07 in   Mostly Cloudy
8:55 AM 51.8 °F 50.0 °F 94% 29.62 in 4.0 mi SSW 8.1 mph - 0.12 in Rain Light Rain
9:15 AM 51.8 °F 50.0 °F 94% 29.61 in 4.0 mi South 9.2 mph - 0.02 in Rain Light Rain
9:35 AM 53.6 °F 50.0 °F 88% 29.61 in 3.0 mi South 8.1 mph - 0.07 in Rain Light Rain
9:55 AM 53.6 °F 50.0 °F 88% 29.61 in 5.0 mi South 6.9 mph - 0.09 in   Partly Cloudy
10:15 AM 51.8 °F 50.0 °F 94% 29.62 in 4.0 mi South 8.1 mph - 0.02 in   Mostly Cloudy
10:35 AM 51.8 °F 50.0 °F 94% 29.61 in 6.0 mi South 8.1 mph - 0.05 in Rain Light Rain
10:55 AM 53.6 °F 50.0 °F 88% 29.61 in 8.0 mi SSE 9.2 mph - 0.06 in Rain Light Rain
11:15 AM 53.6 °F 50.0 °F 88% 29.60 in 10.0 mi South 10.4 mph - N/A   Scattered Clouds
11:35 AM 53.6 °F 50.0 °F 88% 29.60 in 9.0 mi South 12.7 mph 17.3 mph N/A   Scattered Clouds
11:55 AM 53.6 °F 50.0 °F 88% 29.59 in 8.0 mi SSE 10.4 mph 19.6 mph N/A   Scattered Clouds
12:15 PM 53.6 °F 50.0 °F 88% 29.59 in 7.0 mi South 12.7 mph 19.6 mph N/A Rain Light Rain
12:35 PM 53.6 °F 50.0 °F 88% 29.58 in 8.0 mi South 12.7 mph 21.9 mph N/A   Mostly Cloudy
12:55 PM 53.6 °F 50.0 °F 88% 29.58 in 6.0 mi South 11.5 mph 19.6 mph N/A   Mostly Cloudy
1:15 PM 53.6 °F 50.0 °F 88% 29.57 in 6.0 mi South 10.4 mph 16.1 mph 0.01 in Rain Light Rain
1:35 PM 53.6 °F 51.8 °F 94% 29.56 in 5.0 mi South 10.4 mph 18.4 mph 0.01 in Rain Light Rain
1:55 PM 53.6 °F 51.8 °F 94% 29.55 in 5.0 mi South 12.7 mph 23.0 mph 0.02 in Rain Light Rain
2:15 PM 53.6 °F 51.8 °F 94% 29.53 in 5.0 mi South 12.7 mph - 0.01 in Rain Light Rain
2:35 PM 53.6 °F 51.8 °F 94% 29.50 in 8.0 mi South 13.8 mph 20.7 mph 0.02 in Rain Light Rain
2:55 PM 53.6 °F 51.8 °F 94% 29.49 in 5.0 mi South 15.0 mph 24.2 mph 0.02 in Rain Light Rain
3:15 PM 53.6 °F 51.8 °F 94% 29.48 in 5.0 mi South 18.4 mph 23.0 mph N/A Rain Light Rain
3:35 PM 53.6 °F 51.8 °F 94% 29.47 in 4.0 mi South 16.1 mph 24.2 mph N/A Rain Light Rain
3:55 PM 53.6 °F 51.8 °F 94% 29.46 in 4.0 mi South 13.8 mph 21.9 mph N/A   Mostly Cloudy
4:15 PM 53.6 °F 53.6 °F 100% 29.43 in 4.0 mi South 10.4 mph 20.7 mph 0.01 in Rain Light Rain
4:35 PM 55.4 °F 53.6 °F 94% 29.40 in 5.0 mi South 13.8 mph 19.6 mph 0.02 in Rain Light Rain
4:55 PM 55.4 °F 53.6 °F 94% 29.38 in 5.0 mi South 15.0 mph 24.2 mph 0.02 in Rain Light Rain
5:15 PM 55.4 °F 53.6 °F 94% 29.36 in 5.0 mi South 21.9 mph 32.2 mph 0.01 in   Mostly Cloudy
5:35 PM 55.4 °F 53.6 °F 94% 29.34 in 2.5 mi South 17.3 mph 27.6 mph 0.01 in   Mostly Cloudy
5:55 PM 55.4 °F 53.6 °F 94% 29.33 in 2.0 mi South 17.3 mph 28.8 mph 0.02 in   Overcast
6:15 PM 55.4 °F 53.6 °F 94% 29.29 in 2.5 mi South 21.9 mph 32.2 mph 0.02 in Rain Light Rain
6:35 PM 55.4 °F 53.6 °F 94% 29.27 in 2.5 mi South 21.9 mph 32.2 mph 0.03 in Rain Light Rain
6:55 PM 55.4 °F 53.6 °F 94% 29.25 in 3.0 mi South 24.2 mph 32.2 mph 0.06 in Rain Light Rain
7:15 PM 53.6 °F 53.6 °F 100% 29.22 in 2.5 mi South 24.2 mph 38.0 mph 0.02 in Rain Light Rain
7:35 PM 55.4 °F 53.6 °F 94% 29.30 in 2.5 mi SW 17.3 mph 29.9 mph 0.10 in Rain Rain
7:55 PM 55.4 °F 53.6 °F 94% 29.32 in 3.0 mi SSW 13.8 mph 32.2 mph 0.21 in Rain Rain
8:15 PM 55.4 °F 53.6 °F 94% 29.34 in 5.0 mi SW 9.2 mph 18.4 mph 0.03 in Rain Light Rain
8:35 PM 53.6 °F 51.8 °F 94% 29.38 in 5.0 mi SW 10.4 mph 19.6 mph 0.04 in   Overcast
8:55 PM 53.6 °F 50.0 °F 88% 29.39 in 10.0 mi SW 9.2 mph 23.0 mph 0.06 in   Mostly Cloudy
9:15 PM 53.6 °F 48.2 °F 82% 29.40 in 10.0 mi SW 8.1 mph - N/A   Overcast
9:35 PM 53.6 °F 48.2 °F 82% 29.42 in 10.0 mi WSW 4.6 mph - N/A   Mostly Cloudy
9:55 PM 53.6 °F 48.2 °F 82% 29.44 in 8.0 mi WSW 4.6 mph - N/A   Mostly Cloudy
10:15 PM 53.6 °F 46.4 °F 77% 29.46 in 10.0 mi SW 5.8 mph - N/A   Mostly Cloudy
10:35 PM 51.8 °F 46.4 °F 82% 29.48 in 9.0 mi SW 3.5 mph - N/A   Mostly Cloudy
10:55 PM 51.8 °F 46.4 °F 82% 29.48 in 9.0 mi South 8.1 mph - N/A   Mostly Cloudy
11:15 PM 50.0 °F 46.4 °F 87% 29.49 in 9.0 mi SSW 9.2 mph - N/A   Scattered Clouds
11:35 PM 51.8 °F 44.6 °F 76% 29.51 in 10.0 mi SW 8.1 mph 19.6 mph N/A   Mostly Cloudy
11:55 PM 50.0 °F 44.6 °F 82% 29.52 in 10.0 mi SSW 5.8 mph - N/A   Overcast